Regional Weather Roundup
Issued by NWS Portland, ME

Home | Current Version | Previous Version | Text Only | Print | Product List | Glossary On
Versions: 1 2 3 4 5 6 7 8 9 10 11 12 13 14 15 16 17 18 19 20 21 22 23 24 25 26 27 28 29 30 31 32 33 34 35 36 37 38 39 40 41 42 43 44 45 46 47 48 49 50
000
ASUS41 KGYX 210010
RWRGYX
WEATHER ROUNDUP FOR MAINE AND NEW HAMPSHIRE
NATIONAL WEATHER SERVICE GRAY ME
800 PM EDT MON OCT 20 2014

MEZ002-005-006-010-012-015-018-020-021-024-026-027-029-210100-
MAINE

CITY           SKY/WX    TMP DP  RH WIND       PRES   REMARKS
PORTLAND       PTCLDY    49  33  54 CALM      29.97S
6HR MIN TEMP:  47; 6HR MAX TEMP:  56;

SANFORD        MOCLDY    41  34  75 SW5       29.97S
BAR HARBOR     CLEAR     46  37  71 SW6       29.96S
WISCASSET      MOCLDY    40  35  83 CALM      29.98S
6HR MIN TEMP:  40; 6HR MAX TEMP:  52;

ROCKLAND       PTCLDY    39  34  81 SW3       29.96S
FRYEBURG       MOCLDY    41  32  70 CALM      29.96R
6HR MIN TEMP:  41; 6HR MAX TEMP:  56;

LEWISTONAUBURN PTCLDY    39  30  70 CALM      29.96R
AUGUSTA        PTCLDY    44  29  55 S3        29.96R
6HR MIN TEMP:  44; 6HR MAX TEMP:  52;

WATERVILLE     PTCLDY    43  27  52 SW3       29.93R
BANGOR         PTCLDY    42  28  57 SW3       29.96R
6HR MIN TEMP:  40; 6HR MAX TEMP:  50;

GREENVILLE       N/A     40  25  55 VRB3      29.90R
6HR MIN TEMP:  38; 6HR MAX TEMP:  46;

MILLINOCKET    CLEAR     38  29  70 E6        29.94R
6HR MIN TEMP:  37; 6HR MAX TEMP:  49;

HOULTON        CLEAR     31  27  85 CALM      29.90R
6HR MIN TEMP:  29; 6HR MAX TEMP:  46;

PRESQUE ISLE   CLEAR     37  25  60 W6        29.89R
6HR MIN TEMP:  36; 6HR MAX TEMP:  45;

FRENCHVILLE    CLOUDY    34  25  69 W5        29.86R
6HR MIN TEMP:  34; 6HR MAX TEMP:  42;

CARIBOU        CLEAR     37  25  61 W8        29.88R
6HR MIN TEMP:  36; 6HR MAX TEMP:  45;

$$

NHZ002-005-008-009-011-012-014-210100-
NEW HAMPSHIRE

CITY           SKY/WX    TMP DP  RH WIND       PRES   REMARKS
PORTSMOUTH     CLOUDY    51  34  52 S3        29.97R
ROCHESTER      CLOUDY    48  34  58 CALM      29.96S
6HR MIN TEMP:  47; 6HR MAX TEMP:  55;

NASHUA         MOCLDY    52  36  54 CALM      29.99R
MANCHESTER     CLOUDY    52  34  50 S7        29.96R
6HR MIN TEMP:  52; 6HR MAX TEMP:  58;

CONCORD        CLOUDY    48  36  63 SE3       29.96S
6HR MIN TEMP:  47; 6HR MAX TEMP:  55;

LACONIA        MOCLDY    46  36  66 CALM      29.94S
PLYMOUTH       CLOUDY    45  43  93 CALM      29.96R
BERLIN         CLOUDY    42  34  73 CALM      29.94S
6HR MIN TEMP:  41; 6HR MAX TEMP:  51;

WHITEFIELD     CLOUDY    43  36  76 CALM      29.94S
6HR MIN TEMP:  43; 6HR MAX TEMP:  50;

JAFFREY        CLOUDY    47  36  65 S6        29.97S
6HR MIN TEMP:  47; 6HR MAX TEMP:  52;

LEBANON        CLOUDY    45  37  73 CALM      29.94R
6HR MIN TEMP:  45; 6HR MAX TEMP:  56;

MT WASHINGTON  FOG       21  21 100 W39         N/A  VSB 1/16WCI   1
6HR MIN TEMP:  19; 6HR MAX TEMP:  25;

$$

VTZ005-007-008-210100-
VERMONT

CITY           SKY/WX    TMP DP  RH WIND       PRES   REMARKS
ST JOHNSBURY     N/A     46  36  68 MISG      29.93S
MONTPELIER     CLOUDY    43  37  79 CALM      29.96F
BURLINGTON     CLOUDY    47  36  65 CALM      29.93S
$$

MAZ007-012-024-CTZ003-RIZ002-NYZ038-NYZ072-210100-
SOUTHERN NEW ENGLAND AND NY

CITY           SKY/WX    TMP DP  RH WIND       PRES   REMARKS
BOSTON         MOCLDY    53  35  50 SW9       30.00R
WORCESTER      PTCLDY    44  36  73 SW8       29.98R
NANTUCKET      PTCLDY    54  43  66 W14       30.03S
PROVIDENCE     MOCLDY    47  40  76 S6        30.02R
HARTFORD       CLOUDY    50  38  63 S6        29.98R
ALBANY         CLOUDY    52  36  54 S5        29.94S
NEW YORK CITY  PTCLDY    58  38  47 SW3       29.98R
$$

ANZ081-ANZ082-ANZ150-NHZ014-MEZ023>029-210100-
COASTAL MARINE OBSERVATIONS

STATION/POSITION TIME  TEMP    WIND        PRES    WAVE
                       AIR SEA DIR/SP/G            HT/PER
                 (UTC) (F)     (DEG/KT/KT) (MB)    (FT/S)
MATINICUS ROCK   0000          250/ 18/ 21 1014.4R
PORTLAND WX BUOY 2350   54 55  220/  8/ 10 1014.5S   2/10
WELLS            2300   50 50  270/  2/  3 1014.0R
ISLE OF SHOALS   0000   54     240/ 11/ 12 1014.5R
JEFFREYS LEDGE   2321      56                N/A     3/ 4
CASHES LEDGE BUO 2350   54 55  250/ 14/ 16 1014.7R   4/ 5
$$

.............KEY..............
   WCI - WIND CHILL
   TC  - TEMPERATURE IN CELSIUS
   VSB - VISIBILITY IN MILES
   HX  - HEAT INDEX
   FAIR- INDICATES FEW OR NO CLOUDS BELOW 12,000 FT, WITH NO
         SIGNIFICANT WEATHER AND/OR OBSTRUCTIONS TO VISIBILITY.




USA.gov is the U.S. government's official web portal to all federal, state and local government web resources and services.